Simultaneous Nadir Overpasses (SNOs) Predictions

Prediction of SNOs between GOES-17 and NOAA-21 Satellite Orbit:

Table of predicted SNOs for the next 14.0 days since TLE Epoch: 11/23/2024
Index Date Time (GOES-17) GOES-17 Lat,Lon NOAA-21 Lat,Lon Distance(km) Time Diff (sec)
1 11/23/2024 08:34:51 -0.00,-104.70 0.49,-106.81 240.31 80
2 11/24/2024 08:13:26 -0.00,-104.71 -0.54,-102.28 276.07 80
3 11/25/2024 20:35:23 0.00,-104.69 -0.64,-107.59 330.28 80
4 11/26/2024 20:19:17 0.00,-104.70 0.34,-103.05 186.77 80
5 11/28/2024 08:41:04 0.00,-104.73 0.82,-108.33 410.47 80
6 11/29/2024 08:19:40 0.00,-104.73 -0.23,-103.80 105.98 80
7 12/01/2024 20:25:30 -0.01,-104.71 0.01,-104.57 15.49 80
8 12/04/2024 08:28:32 0.02,-104.74 0.14,-105.31 65.16 80
9 12/05/2024 08:07:06 0.02,-104.73 -0.86,-100.77 450.92 80
10 12/06/2024 20:29:02 -0.02,-104.70 -0.32,-106.08 156.92 80
